EW6762 Weather Reports


Display with metric or nautical units.
time (UTC)temp
F
wind
direction
speed
MPH
gust
MPH
rain 1hr
in
rain 24hr
in
rain mn
in
humidity
%
barometer
mb
20260505204315 85 165 6.0 15.0 0.00 0.00 0.00 48 1015.9
20260505203323 84 212 5.0 10.0 0.00 0.00 0.00 49 1015.9
20260505202314 85 135 6.0 13.0 0.00 0.00 0.00 48 1015.8
20260505201333 86 130 10.0 17.0 0.00 0.00 0.00 45 1016.0
20260505200331 86 136 5.0 13.0 0.00 0.00 0.00 46 1016.0
20260505195346 85 153 4.0 11.0 0.00 0.00 0.00 46 1016.1
20260505194320 85 139 6.0 11.0 0.00 0.00 0.00 47 1016.4
20260505193318 85 142 7.0 12.0 0.00 0.00 0.00 46 1016.7
20260505192311 85 154 5.0 14.0 0.00 0.00 0.00 47 1016.9
20260505191334 85 155 6.0 16.0 0.00 0.00 0.00 47 1016.8
20260505190328 84 150 5.0 10.0 0.00 0.00 0.00 47 1016.9
20260505185349 84 138 5.0 12.0 0.00 0.00 0.00 47 1017.2
20260505184324 85 219 6.0 11.0 0.00 0.00 0.00 48 1017.3
20260505183324 85 159 9.0 16.0 0.00 0.00 0.00 46 1017.4
20260505182318 84 141 5.0 15.0 0.00 0.00 0.00 48 1017.4
20260505181315 85 211 5.0 13.0 0.00 0.00 0.00 48 1017.5
20260505180334 85 137 6.0 11.0 0.00 0.00 0.00 48 1017.6
20260505175332 85 169 3.0 11.0 0.00 0.00 0.00 47 1017.7
20260505174327 85 178 3.0 8.0 0.00 0.00 0.00 47 1017.8
20260505173323 85 132 6.0 11.0 0.00 0.00 0.00 48 1017.8
20260505172320 85 148 2.0 8.0 0.00 0.00 0.00 49 1017.8
20260505171314 85 257 6.0 11.0 0.00 0.00 0.00 48 1017.9
20260505170335 84 153 4.0 13.0 0.00 0.00 0.00 50 1017.8
20260505165310 84 160 4.0 13.0 0.00 0.00 0.00 50 1018.1
20260505164329 84 125 4.0 12.0 0.00 0.00 0.00 49 1018.2
20260505163317 83 128 4.0 12.0 0.00 0.00 0.00 54 1018.2
20260505162309 82 131 7.0 12.0 0.00 0.00 0.00 54 1018.3
20260505161311 81 207 6.0 11.0 0.00 0.00 0.00 54 1018.5
20260505160322 81 146 4.0 11.0 0.00 0.00 0.00 52 1018.6
20260505153327 80 229 6.0 10.0 0.00 0.00 0.00 54 1018.8
20260505152324 80 206 3.0 10.0 0.00 0.00 0.00 54 1018.8
20260505151334 79 142 5.0 9.0 0.00 0.00 0.00 57 1018.9
20260505150328 78 249 3.0 12.0 0.00 0.00 0.00 58 1018.8
20260505140328 73 213 4.0 10.0 0.00 0.00 0.00 65 1018.8
20260505130310 68 238 3.0 8.0 0.00 0.00 0.00 73 1018.8
20260505124319 66 217 3.0 8.0 0.00 0.00 0.00 75 1018.7
20260505123312 65 134 2.0 9.0 0.00 0.00 0.00 77 1018.7
20260505122313 63 241 3.0 8.0 0.00 0.00 0.00 78 1018.7
20260505121328 63 184 3.0 7.0 0.00 0.00 0.00 79 1018.8
20260505120329 62 227 4.0 8.0 0.00 0.00 0.00 80 1018.7
20260505115321 61 215 2.0 6.0 0.00 0.00 0.00 81 1018.6
20260505114321 60 225 3.0 5.0 0.00 0.00 0.00 81 1018.5
20260505113318 59 207 1.0 6.0 0.00 0.00 0.00 83 1018.5
20260505112336 59 184 1.0 3.0 0.00 0.00 0.00 82 1018.4
20260505111328 58 150 2.0 4.0 0.00 0.00 0.00 83 1018.4
20260505110309 57 142 2.0 3.0 0.00 0.00 0.00 83 1018.2
20260505101324 57 141 1.0 3.0 0.00 0.00 0.00 83 1017.5
20260505100324 57 128 1.0 3.0 0.00 0.00 0.00 83 1017.4
20260505095317 57 153 1.0 3.0 0.00 0.00 0.00 82 1017.4
20260505094311 57 134 1.0 3.0 0.00 0.00 0.00 82 1017.4
20260505093310 57 121 1.0 2.0 0.00 0.00 0.00 81 1017.4
20260505092329 58 126 0.0 3.0 0.00 0.00 0.00 81 1017.4
20260505091322 58 186 1.0 3.0 0.00 0.00 0.00 80 1017.3
20260505090319 58 129 0.0 3.0 0.00 0.00 0.00 80 1017.3
20260505085321 58 157 1.0 3.0 0.00 0.00 0.00 80 1017.2
20260505084315 58 116 0.0 3.0 0.00 0.00 0.00 79 1017.1
20260505083325 59 138 1.0 3.0 0.00 0.00 0.00 78 1017.0
20260505082312 59 155 1.0 3.0 0.00 0.00 0.00 77 1016.9
20260505081349 60 127 1.0 3.0 0.00 0.00 0.00 76 1016.9
20260505080317 61 93 1.0 2.0 0.00 0.00 0.00 75 1016.9
20260505075315 61 91 1.0 3.0 0.00 0.00 0.00 74 1016.9
20260505074325 62 88 2.0 3.0 0.00 0.00 0.00 73 1016.9
20260505073324 62 124 2.0 5.0 0.00 0.00 0.00 72 1016.9
20260505072316 63 130 1.0 7.0 0.00 0.00 0.00 72 1016.8
20260505071312 63 126 3.0 7.0 0.00 0.00 0.00 71 1016.8
20260505070312 63 127 1.0 4.0 0.00 0.00 0.00 71 1016.8
20260505065309 63 159 3.0 10.0 0.00 0.00 0.00 71 1016.8
20260505064311 63 157 2.0 6.0 0.00 0.00 0.00 71 1016.7
20260505063329 63 190 2.0 6.0 0.00 0.00 0.00 71 1016.8
20260505062321 64 130 2.0 7.0 0.00 0.00 0.00 70 1016.8
20260505061318 64 142 2.0 9.0 0.00 0.00 0.00 70 1016.9
20260505060316 64 93 2.0 5.0 0.00 0.00 0.00 69 1017.0
20260505055310 64 135 2.0 7.0 0.00 0.00 0.00 69 1017.0
20260505054331 64 144 3.0 7.0 0.00 0.00 0.00 69 1017.1
20260505053318 65 144 3.0 5.0 0.00 0.00 0.00 68 1017.2
20260505052319 65 182 3.0 6.0 0.00 0.00 0.00 68 1017.2
20260505051312 65 170 2.0 7.0 0.00 0.00 0.00 68 1017.3
20260505050315 65 159 3.0 7.0 0.00 0.00 0.00 67 1017.3
20260505041321 66 192 3.0 7.0 0.00 0.00 0.00 67 1017.3
20260505040313 66 138 7.0 12.0 0.00 0.00 0.00 67 1017.3
20260505035331 66 127 3.0 9.0 0.00 0.00 0.00 67 1017.3
20260505034321 67 190 5.0 11.0 0.00 0.00 0.00 67 1017.3
20260505033345 67 161 4.0 10.0 0.00 0.00 0.00 67 1017.3
20260505032318 67 145 5.0 8.0 0.00 0.00 0.00 66 1017.3
20260505031337 67 131 5.0 12.0 0.00 0.00 0.00 66 1017.3
20260505030313 68 166 4.0 10.0 0.00 0.00 0.00 66 1017.3
20260505025319 68 135 5.0 15.0 0.00 0.00 0.00 65 1017.3
20260505024314 68 126 6.0 11.0 0.00 0.00 0.00 65 1017.3
20260505023316 68 148 5.0 12.0 0.00 0.00 0.00 65 1017.3
20260505022332 68 167 6.0 12.0 0.00 0.00 0.00 64 1017.2
20260505021310 69 148 4.0 11.0 0.00 0.00 0.00 64 1017.2
20260505020327 69 136 4.0 9.0 0.00 0.00 0.00 64 1017.1
20260505015330 69 141 5.0 10.0 0.00 0.00 0.00 63 1017.0
20260505014323 70 175 4.0 12.0 0.00 0.00 0.00 63 1016.9
20260505013320 70 76 4.0 12.0 0.00 0.00 0.00 63 1016.8
20260505012321 71 130 6.0 12.0 0.00 0.00 0.00 63 1016.7
20260505011319 71 184 5.0 11.0 0.00 0.00 0.00 62 1016.7
20260505010315 72 150 6.0 12.0 0.00 0.00 0.00 62 1016.6
20260505005317 72 136 4.0 10.0 0.00 0.00 0.00 61 1016.4
20260505004311 73 141 6.0 11.0 0.00 0.00 0.00 61 1016.2
20260505003334 73 131 6.0 9.0 0.00 0.00 0.00 60 1016.1
20260505002312 74 144 7.0 13.0 0.00 0.00 0.00 59 1016.0
20260505001335 75 132 7.0 12.0 0.00 0.00 0.00 56 1015.8
20260505000351 76 140 7.0 14.0 0.00 0.00 0.00 49 1015.7
20260504235328 77 114 4.0 9.0 0.00 0.00 0.00 43 1015.5
20260504234323 77 146 4.0 11.0 0.00 0.00 0.00 43 1015.4
20260504233327 78 153 4.0 14.0 0.00 0.00 0.00 41 1015.1
20260504232322 79 163 7.0 13.0 0.00 0.00 0.00 40 1015.0
20260504231318 80 93 3.0 13.0 0.00 0.00 0.00 41 1015.0
20260504230318 81 205 4.0 10.0 0.00 0.00 0.00 39 1015.0
20260504225314 82 212 3.0 9.0 0.00 0.00 0.00 38 1014.9
20260504224310 82 178 3.0 8.0 0.00 0.00 0.00 38 1015.0
20260504223313 82 126 5.0 11.0 0.00 0.00 0.00 39 1014.9
20260504222308 83 89 5.0 11.0 0.00 0.00 0.00 37 1014.9
20260504221310 83 153 4.0 10.0 0.00 0.00 0.00 37 1014.9
20260504220325 84 151 4.0 11.0 0.00 0.00 0.00 36 1015.0
20260504215348 83 157 6.0 11.0 0.00 0.00 0.00 35 1015.0
20260504214321 84 165 4.0 13.0 0.00 0.00 0.00 35 1015.1
20260504213320 84 110 5.0 15.0 0.00 0.00 0.00 37 1015.0
20260504212318 84 157 5.0 11.0 0.00 0.00 0.00 37 1015.0
20260504211315 84 142 5.0 11.0 0.00 0.00 0.00 35 1015.0
20260504210315 84 126 6.0 12.0 0.00 0.00 0.00 36 1015.1
20260504205310 85 235 4.0 13.0 0.00 0.00 0.00 36 1015.1